| time (UTC) | temp F | wind direction | speed MPH | gust MPH | rain 1hr in | rain 24hr in | rain mn in | humidity % | barometer mb |
| 20260503230529 | 84 | 9 | 1.0 | 4.0 | 0.00 | 0.00 | 0.00 | 15 | 1011.9 |
| 20260503230138 | 84 | 241 | 2.0 | 10.0 | 0.00 | 0.00 | 0.00 | 16 | 1011.9 |
| 20260503225525 | 84 | 18 | 3.0 | 10.0 | 0.00 | 0.00 | 0.00 | 17 | 1011.9 |
| 20260503225028 | 84 | 234 | 2.0 | 7.0 | 0.00 | 0.00 | 0.00 | 16 | 1012.0 |
| 20260503224558 | 84 | 95 | 2.0 | 7.0 | 0.00 | 0.00 | 0.00 | 15 | 1012.0 |
| 20260503224017 | 84 | 227 | 2.0 | 5.0 | 0.00 | 0.00 | 0.00 | 17 | 1012.2 |
| 20260503223533 | 84 | 334 | 2.0 | 6.0 | 0.00 | 0.00 | 0.00 | 15 | 1012.2 |
| 20260503223111 | 84 | 5 | 1.0 | 6.0 | 0.00 | 0.00 | 0.00 | 17 | 1012.4 |
| 20260503222524 | 84 | 278 | 0.0 | 5.0 | 0.00 | 0.00 | 0.00 | 17 | 1012.5 |
| 20260503222024 | 84 | 237 | 2.0 | 7.0 | 0.00 | 0.00 | 0.00 | 16 | 1012.6 |
| 20260503221630 | 84 | 286 | 1.0 | 11.0 | 0.00 | 0.00 | 0.00 | 16 | 1012.7 |
| 20260503221024 | 84 | 360 | 4.0 | 11.0 | 0.00 | 0.00 | 0.00 | 14 | 1012.8 |
| 20260503220524 | 84 | 300 | 2.0 | 5.0 | 0.00 | 0.00 | 0.00 | 17 | 1012.8 |
| 20260503220127 | 83 | 352 | 2.0 | 5.0 | 0.00 | 0.00 | 0.00 | 17 | 1012.9 |
| 20260503215531 | 83 | 348 | 3.0 | 6.0 | 0.00 | 0.00 | 0.00 | 15 | 1012.9 |
| 20260503215023 | 83 | 309 | 3.0 | 9.0 | 0.00 | 0.00 | 0.00 | 15 | 1013.0 |
| 20260503214637 | 83 | 23 | 3.0 | 9.0 | 0.00 | 0.00 | 0.00 | 15 | 1013.0 |
| 20260503214019 | 83 | 288 | 1.0 | 6.0 | 0.00 | 0.00 | 0.00 | 17 | 1013.1 |
| 20260503213519 | 83 | 345 | 1.0 | 8.0 | 0.00 | 0.00 | 0.00 | 17 | 1013.2 |
| 20260503213121 | 83 | 300 | 2.0 | 9.0 | 0.00 | 0.00 | 0.00 | 17 | 1013.3 |
| 20260503212543 | 83 | 33 | 3.0 | 9.0 | 0.00 | 0.00 | 0.00 | 16 | 1013.3 |
| 20260503212024 | 84 | 289 | 1.0 | 4.0 | 0.00 | 0.00 | 0.00 | 15 | 1013.3 |
| 20260503211554 | 84 | 323 | 2.0 | 4.0 | 0.00 | 0.00 | 0.00 | 17 | 1013.4 |
| 20260503211031 | 83 | 306 | 2.0 | 4.0 | 0.00 | 0.00 | 0.00 | 18 | 1013.4 |
| 20260503210525 | 83 | 35 | 1.0 | 4.0 | 0.00 | 0.00 | 0.00 | 19 | 1013.4 |
| 20260503210149 | 83 | 252 | 1.0 | 7.0 | 0.00 | 0.00 | 0.00 | 16 | 1013.4 |
| 20260503205541 | 82 | 339 | 2.0 | 5.0 | 0.00 | 0.00 | 0.00 | 18 | 1013.4 |
| 20260503205038 | 82 | 125 | 1.0 | 7.0 | 0.00 | 0.00 | 0.00 | 15 | 1013.4 |
| 20260503204623 | 82 | 227 | 2.0 | 7.0 | 0.00 | 0.00 | 0.00 | 17 | 1013.6 |
| 20260503204037 | 82 | 12 | 1.0 | 6.0 | 0.00 | 0.00 | 0.00 | 16 | 1013.6 |
| 20260503203536 | 83 | 5 | 2.0 | 5.0 | 0.00 | 0.00 | 0.00 | 16 | 1013.8 |
| 20260503203110 | 82 | 20 | 2.0 | 9.0 | 0.00 | 0.00 | 0.00 | 18 | 1013.7 |
| 20260503202515 | 82 | 296 | 2.0 | 9.0 | 0.00 | 0.00 | 0.00 | 16 | 1013.7 |
| 20260503202031 | 82 | 317 | 2.0 | 7.0 | 0.00 | 0.00 | 0.00 | 17 | 1014.0 |
| 20260503201656 | 82 | 85 | 0.0 | 4.0 | 0.00 | 0.00 | 0.00 | 16 | 1014.1 |
| 20260503201032 | 81 | 114 | 0.0 | 6.0 | 0.00 | 0.00 | 0.00 | 19 | 1014.1 |
| 20260503200516 | 81 | 334 | 4.0 | 6.0 | 0.00 | 0.00 | 0.00 | 18 | 1014.2 |
| 20260503200141 | 81 | 37 | 1.0 | 6.0 | 0.00 | 0.00 | 0.00 | 17 | 1014.2 |
| 20260503195523 | 81 | 360 | 3.0 | 6.0 | 0.00 | 0.00 | 0.00 | 17 | 1014.3 |
| 20260503195024 | 81 | 304 | 0.0 | 7.0 | 0.00 | 0.00 | 0.00 | 18 | 1014.6 |
| 20260503194631 | 81 | 88 | 1.0 | 7.0 | 0.00 | 0.00 | 0.00 | 19 | 1014.4 |
| 20260503194030 | 81 | 232 | 1.0 | 5.0 | 0.00 | 0.00 | 0.00 | 17 | 1014.6 |
| 20260503193613 | 81 | 190 | 2.0 | 8.0 | 0.00 | 0.00 | 0.00 | 18 | 1014.7 |
| 20260503193135 | 80 | 205 | 2.0 | 8.0 | 0.00 | 0.00 | 0.00 | 17 | 1014.7 |
| 20260503192531 | 80 | 334 | 1.0 | 5.0 | 0.00 | 0.00 | 0.00 | 19 | 1014.7 |
| 20260503192029 | 80 | 123 | 2.0 | 4.0 | 0.00 | 0.00 | 0.00 | 16 | 1014.7 |
| 20260503191638 | 80 | 360 | 2.0 | 6.0 | 0.00 | 0.00 | 0.00 | 17 | 1014.6 |
| 20260503191024 | 80 | 319 | 2.0 | 9.0 | 0.00 | 0.00 | 0.00 | 18 | 1015.0 |
| 20260503190530 | 79 | 330 | 1.0 | 9.0 | 0.00 | 0.00 | 0.00 | 19 | 1014.9 |
| 20260503190059 | 79 | 138 | 3.0 | 8.0 | 0.00 | 0.00 | 0.00 | 18 | 1015.0 |
| 20260503185541 | 79 | 230 | 2.0 | 4.0 | 0.00 | 0.00 | 0.00 | 18 | 1015.1 |
| 20260503185028 | 78 | 344 | 1.0 | 5.0 | 0.00 | 0.00 | 0.00 | 24 | 1015.0 |
| 20260503184645 | 79 | 87 | 2.0 | 5.0 | 0.00 | 0.00 | 0.00 | 23 | 1015.1 |
| 20260503184030 | 78 | 178 | 1.0 | 3.0 | 0.00 | 0.00 | 0.00 | 26 | 1015.1 |
| 20260503183522 | 77 | 11 | 1.0 | 3.0 | 0.00 | 0.00 | 0.00 | 30 | 1015.3 |
| 20260503183137 | 77 | 125 | 2.0 | 3.0 | 0.00 | 0.00 | 0.00 | 29 | 1015.5 |
| 20260503182521 | 77 | 32 | 1.0 | 3.0 | 0.00 | 0.00 | 0.00 | 32 | 1015.4 |
| 20260503182028 | 76 | 91 | 1.0 | 3.0 | 0.00 | 0.00 | 0.00 | 32 | 1015.2 |
| 20260503181653 | 76 | 96 | 1.0 | 3.0 | 0.00 | 0.00 | 0.00 | 33 | 1015.5 |
| 20260503181024 | 75 | 43 | 0.0 | 5.0 | 0.00 | 0.00 | 0.00 | 31 | 1015.4 |
| 20260503180526 | 75 | 130 | 2.0 | 5.0 | 0.00 | 0.00 | 0.00 | 33 | 1015.6 |
| 20260503180112 | 74 | 55 | 1.0 | 5.0 | 0.00 | 0.00 | 0.00 | 32 | 1015.8 |
| 20260503175533 | 73 | 101 | 2.0 | 4.0 | 0.00 | 0.00 | 0.00 | 35 | 1015.8 |
| 20260503175038 | 73 | 213 | 2.0 | 5.0 | 0.00 | 0.00 | 0.00 | 34 | 1015.8 |
| 20260503174653 | 72 | 150 | 1.0 | 4.0 | 0.00 | 0.00 | 0.00 | 34 | 1015.9 |
| 20260503174022 | 72 | 195 | 1.0 | 3.0 | 0.00 | 0.00 | 0.00 | 34 | 1016.0 |
| 20260503173518 | 72 | 158 | 1.0 | 4.0 | 0.00 | 0.00 | 0.00 | 35 | 1016.1 |
| 20260503173215 | 71 | 107 | 1.0 | 3.0 | 0.00 | 0.00 | 0.00 | 35 | 1016.2 |
| 20260503172519 | 71 | 222 | 1.0 | 3.0 | 0.00 | 0.00 | 0.00 | 36 | 1016.1 |
| 20260503172036 | 70 | 29 | 1.0 | 2.0 | 0.00 | 0.00 | 0.00 | 36 | 1016.2 |
| 20260503171637 | 69 | 88 | 0.0 | 3.0 | 0.00 | 0.00 | 0.00 | 37 | 1016.3 |
| 20260503171028 | 69 | 34 | 1.0 | 4.0 | 0.00 | 0.00 | 0.00 | 37 | 1016.4 |
| 20260503170545 | 68 | 67 | 1.0 | 4.0 | 0.00 | 0.00 | 0.00 | 39 | 1016.4 |
| 20260503170133 | 68 | 340 | 2.0 | 3.0 | 0.00 | 0.00 | 0.00 | 38 | 1016.4 |
| 20260503160130 | 62 | 71 | 0.0 | 3.0 | 0.00 | 0.00 | 0.00 | 45 | 1017.1 |
| 20260503150541 | 54 | 296 | 0.0 | 1.0 | 0.00 | 0.00 | 0.00 | 56 | 1017.5 |
| 20260503150143 | 54 | 279 | 0.0 | 1.0 | 0.00 | 0.00 | 0.00 | 59 | 1017.5 |
| 20260503140132 | 49 | 259 | 1.0 | 3.0 | 0.00 | 0.00 | 0.00 | 69 | 1017.7 |
| 20260503131103 | 47 | 254 | 1.0 | 3.0 | 0.00 | 0.00 | 0.00 | 71 | 1017.8 |
| 20260503130603 | 47 | 248 | 1.0 | 4.0 | 0.00 | 0.00 | 0.00 | 70 | 1017.9 |
| 20260503130146 | 47 | 236 | 2.0 | 5.0 | 0.00 | 0.00 | 0.00 | 70 | 1017.7 |
| 20260503120109 | 48 | 244 | 2.0 | 3.0 | 0.00 | 0.00 | 0.00 | 69 | 1017.7 |
| 20260503110521 | 48 | 254 | 2.0 | 4.0 | 0.00 | 0.00 | 0.00 | 69 | 1017.8 |
| 20260503110109 | 49 | 238 | 3.0 | 4.0 | 0.00 | 0.00 | 0.00 | 68 | 1018.0 |
| 20260503100146 | 50 | 227 | 2.0 | 4.0 | 0.00 | 0.00 | 0.00 | 67 | 1017.9 |
| 20260503090135 | 50 | 229 | 3.0 | 5.0 | 0.00 | 0.00 | 0.00 | 67 | 1017.8 |
| 20260503081621 | 50 | 231 | 3.0 | 4.0 | 0.00 | 0.00 | 0.00 | 67 | 1017.9 |
| 20260503081116 | 51 | 249 | 2.0 | 5.0 | 0.00 | 0.00 | 0.00 | 66 | 1017.9 |
| 20260503080541 | 51 | 256 | 2.0 | 5.0 | 0.00 | 0.00 | 0.00 | 65 | 1017.8 |
| 20260503080133 | 51 | 236 | 2.0 | 4.0 | 0.00 | 0.00 | 0.00 | 65 | 1017.7 |
| 20260503072559 | 51 | 234 | 3.0 | 5.0 | 0.00 | 0.00 | 0.00 | 65 | 1017.5 |
| 20260503072115 | 51 | 230 | 3.0 | 5.0 | 0.00 | 0.00 | 0.00 | 66 | 1017.5 |
| 20260503071636 | 51 | 253 | 2.0 | 4.0 | 0.00 | 0.00 | 0.00 | 66 | 1017.4 |
| 20260503071110 | 52 | 246 | 2.0 | 4.0 | 0.00 | 0.00 | 0.00 | 65 | 1017.4 |
| 20260503070529 | 52 | 233 | 2.0 | 4.0 | 0.00 | 0.00 | 0.00 | 65 | 1017.5 |
| 20260503070138 | 52 | 240 | 2.0 | 5.0 | 0.00 | 0.00 | 0.00 | 65 | 1017.5 |
| 20260503060121 | 53 | 233 | 2.0 | 7.0 | 0.00 | 0.00 | 0.00 | 63 | 1017.1 |
| 20260503055059 | 53 | 239 | 3.0 | 5.0 | 0.00 | 0.00 | 0.00 | 63 | 1017.1 |
| 20260503054616 | 53 | 216 | 3.0 | 5.0 | 0.00 | 0.00 | 0.00 | 63 | 1017.1 |
| 20260503054020 | 53 | 233 | 3.0 | 5.0 | 0.00 | 0.00 | 0.00 | 63 | 1017.1 |
| 20260503053521 | 54 | 240 | 3.0 | 5.0 | 0.00 | 0.00 | 0.00 | 62 | 1017.1 |
| 20260503053126 | 54 | 235 | 3.0 | 5.0 | 0.00 | 0.00 | 0.00 | 62 | 1017.1 |
| 20260503052543 | 54 | 229 | 3.0 | 4.0 | 0.00 | 0.00 | 0.00 | 61 | 1017.2 |
| 20260503052035 | 54 | 233 | 2.0 | 4.0 | 0.00 | 0.00 | 0.00 | 61 | 1017.0 |
| 20260503051624 | 55 | 229 | 3.0 | 7.0 | 0.00 | 0.00 | 0.00 | 60 | 1017.2 |
| 20260503051021 | 55 | 241 | 2.0 | 7.0 | 0.00 | 0.00 | 0.00 | 60 | 1017.1 |
| 20260503050525 | 55 | 240 | 3.0 | 5.0 | 0.00 | 0.00 | 0.00 | 59 | 1017.0 |
| 20260503050138 | 56 | 242 | 3.0 | 5.0 | 0.00 | 0.00 | 0.00 | 58 | 1017.0 |
| 20260503045537 | 56 | 224 | 3.0 | 5.0 | 0.00 | 0.00 | 0.00 | 57 | 1016.9 |
| 20260503045018 | 56 | 236 | 2.0 | 5.0 | 0.00 | 0.00 | 0.00 | 57 | 1016.8 |
| 20260503044609 | 56 | 255 | 3.0 | 4.0 | 0.00 | 0.00 | 0.00 | 57 | 1016.8 |
| 20260503044034 | 56 | 241 | 2.0 | 4.0 | 0.00 | 0.00 | 0.00 | 59 | 1016.8 |
| 20260503043539 | 56 | 224 | 3.0 | 5.0 | 0.00 | 0.00 | 0.00 | 58 | 1016.8 |
| 20260503043041 | 56 | 238 | 3.0 | 5.0 | 0.00 | 0.00 | 0.00 | 58 | 1016.6 |
| 20260503042539 | 56 | 238 | 2.0 | 5.0 | 0.00 | 0.00 | 0.00 | 58 | 1016.6 |
| 20260503042039 | 57 | 258 | 3.0 | 5.0 | 0.00 | 0.00 | 0.00 | 57 | 1016.5 |
| 20260503041558 | 57 | 248 | 2.0 | 5.0 | 0.00 | 0.00 | 0.00 | 56 | 1016.4 |
| 20260503041028 | 57 | 257 | 2.0 | 5.0 | 0.00 | 0.00 | 0.00 | 57 | 1016.5 |
| 20260503040524 | 57 | 245 | 3.0 | 5.0 | 0.00 | 0.00 | 0.00 | 57 | 1016.4 |
| 20260503040114 | 57 | 242 | 3.0 | 5.0 | 0.00 | 0.00 | 0.00 | 57 | 1016.3 |
| 20260503035538 | 58 | 246 | 2.0 | 4.0 | 0.00 | 0.00 | 0.00 | 56 | 1016.4 |
| 20260503035023 | 59 | 239 | 2.0 | 4.0 | 0.00 | 0.00 | 0.00 | 54 | 1016.2 |
| 20260503034550 | 59 | 238 | 3.0 | 4.0 | 0.00 | 0.00 | 0.00 | 53 | 1016.2 |
| 20260503034031 | 59 | 242 | 2.0 | 5.0 | 0.00 | 0.00 | 0.00 | 52 | 1016.0 |
| 20260503033517 | 60 | 235 | 2.0 | 5.0 | 0.00 | 0.00 | 0.00 | 53 | 1015.8 |
| 20260503033055 | 61 | 239 | 2.0 | 4.0 | 0.00 | 0.00 | 0.00 | 52 | 1015.8 |
| 20260503032517 | 61 | 275 | 1.0 | 5.0 | 0.00 | 0.00 | 0.00 | 49 | 1015.9 |
| 20260503032019 | 61 | 226 | 3.0 | 5.0 | 0.00 | 0.00 | 0.00 | 50 | 1015.8 |
| 20260503031608 | 62 | 250 | 2.0 | 4.0 | 0.00 | 0.00 | 0.00 | 49 | 1015.8 |
| 20260503031042 | 62 | 276 | 2.0 | 4.0 | 0.00 | 0.00 | 0.00 | 49 | 1015.6 |
| 20260503030522 | 63 | 229 | 2.0 | 4.0 | 0.00 | 0.00 | 0.00 | 47 | 1015.6 |
| 20260503030130 | 64 | 229 | 2.0 | 5.0 | 0.00 | 0.00 | 0.00 | 46 | 1015.6 |
| 20260503025541 | 64 | 244 | 3.0 | 5.0 | 0.00 | 0.00 | 0.00 | 44 | 1015.5 |
| 20260503025024 | 64 | 213 | 2.0 | 5.0 | 0.00 | 0.00 | 0.00 | 48 | 1015.4 |
| 20260503024612 | 64 | 133 | 2.0 | 5.0 | 0.00 | 0.00 | 0.00 | 47 | 1015.4 |
| 20260503024041 | 64 | 229 | 2.0 | 5.0 | 0.00 | 0.00 | 0.00 | 49 | 1015.4 |
| 20260503023537 | 64 | 236 | 2.0 | 5.0 | 0.00 | 0.00 | 0.00 | 51 | 1015.3 |
| 20260503023128 | 64 | 242 | 2.0 | 4.0 | 0.00 | 0.00 | 0.00 | 52 | 1015.3 |
| 20260503022516 | 65 | 234 | 2.0 | 4.0 | 0.00 | 0.00 | 0.00 | 51 | 1015.3 |
| 20260503022038 | 65 | 246 | 2.0 | 4.0 | 0.00 | 0.00 | 0.00 | 51 | 1015.3 |
| 20260503021621 | 67 | 255 | 2.0 | 4.0 | 0.00 | 0.00 | 0.00 | 50 | 1015.3 |
| 20260503021041 | 68 | 247 | 1.0 | 3.0 | 0.00 | 0.00 | 0.00 | 47 | 1015.2 |
| 20260503020530 | 68 | 240 | 1.0 | 2.0 | 0.00 | 0.00 | 0.00 | 44 | 1015.3 |
| 20260503020100 | 69 | 254 | 1.0 | 2.0 | 0.00 | 0.00 | 0.00 | 45 | 1015.2 |
| 20260503015525 | 69 | 254 | 1.0 | 2.0 | 0.00 | 0.00 | 0.00 | 46 | 1015.5 |
| 20260503015013 | 70 | 251 | 1.0 | 3.0 | 0.00 | 0.00 | 0.00 | 44 | 1015.6 |
| 20260503014617 | 71 | 250 | 1.0 | 3.0 | 0.00 | 0.00 | 0.00 | 41 | 1015.6 |
| 20260503014038 | 71 | 182 | 0.0 | 3.0 | 0.00 | 0.00 | 0.00 | 39 | 1015.7 |
| 20260503013542 | 71 | 217 | 1.0 | 4.0 | 0.00 | 0.00 | 0.00 | 38 | 1015.7 |
| 20260503013119 | 71 | 207 | 1.0 | 4.0 | 0.00 | 0.00 | 0.00 | 36 | 1015.9 |
| 20260503012530 | 71 | 46 | 0.0 | 4.0 | 0.00 | 0.00 | 0.00 | 37 | 1015.8 |
| 20260503012042 | 72 | 5 | 0.0 | 2.0 | 0.00 | 0.00 | 0.00 | 36 | 1015.5 |
| 20260503011623 | 72 | 100 | 0.0 | 3.0 | 0.00 | 0.00 | 0.00 | 36 | 1015.2 |
| 20260503011042 | 72 | 155 | 0.0 | 3.0 | 0.00 | 0.00 | 0.00 | 35 | 1015.3 |
| 20260503010524 | 72 | 169 | 1.0 | 4.0 | 0.00 | 0.00 | 0.00 | 33 | 1015.3 |
| 20260503010051 | 72 | 159 | 1.0 | 4.0 | 0.00 | 0.00 | 0.00 | 33 | 1015.5 |
| 20260503005525 | 72 | 189 | 1.0 | 3.0 | 0.00 | 0.00 | 0.00 | 33 | 1015.4 |
| 20260503005020 | 73 | 154 | 0.0 | 2.0 | 0.00 | 0.00 | 0.00 | 34 | 1015.5 |
| 20260503004551 | 73 | 180 | 0.0 | 4.0 | 0.00 | 0.00 | 0.00 | 33 | 1015.4 |
| 20260503004015 | 74 | 180 | 1.0 | 4.0 | 0.00 | 0.00 | 0.00 | 32 | 1015.5 |
| 20260503003519 | 74 | 184 | 1.0 | 4.0 | 0.00 | 0.00 | 0.00 | 33 | 1015.4 |
| 20260503003103 | 75 | 161 | 1.0 | 4.0 | 0.00 | 0.00 | 0.00 | 31 | 1015.5 |
| 20260503002520 | 75 | 180 | 0.0 | 4.0 | 0.00 | 0.00 | 0.00 | 32 | 1015.5 |
| 20260503002025 | 75 | 192 | 1.0 | 2.0 | 0.00 | 0.00 | 0.00 | 35 | 1015.6 |
| 20260503001616 | 75 | 82 | 0.0 | 2.0 | 0.00 | 0.00 | 0.00 | 34 | 1015.5 |
| 20260503001017 | 75 | 74 | 0.0 | 2.0 | 0.00 | 0.00 | 0.00 | 31 | 1015.6 |
| 20260503000526 | 75 | 24 | 0.0 | 3.0 | 0.00 | 0.00 | 0.00 | 31 | 1015.7 |
| 20260503000113 | 75 | 114 | 1.0 | 3.0 | 0.00 | 0.00 | 0.00 | 30 | 1015.8 |
| 20260502235524 | 76 | 193 | 0.0 | 4.0 | 0.00 | 0.00 | 0.00 | 30 | 1015.9 |
| 20260502235021 | 76 | 132 | 1.0 | 4.0 | 0.00 | 0.00 | 0.00 | 30 | 1016.0 |
| 20260502234626 | 76 | 176 | 1.0 | 8.0 | 0.00 | 0.00 | 0.00 | 30 | 1015.7 |
| 20260502234020 | 76 | 199 | 2.0 | 7.0 | 0.00 | 0.00 | 0.00 | 30 | 1015.7 |
| 20260502233521 | 75 | 136 | 1.0 | 5.0 | 0.00 | 0.00 | 0.00 | 31 | 1016.0 |
| 20260502233056 | 74 | 142 | 1.0 | 3.0 | 0.00 | 0.00 | 0.00 | 33 | 1015.9 |
| 20260502232534 | 74 | 166 | 0.0 | 3.0 | 0.00 | 0.00 | 0.00 | 41 | 1015.8 |
| 20260502232025 | 74 | 181 | 0.0 | 3.0 | 0.00 | 0.00 | 0.00 | 36 | 1015.9 |
| 20260502231618 | 74 | 110 | 0.0 | 2.0 | 0.00 | 0.00 | 0.00 | 37 | 1016.0 |
| 20260502231032 | 75 | 130 | 0.0 | 2.0 | 0.00 | 0.00 | 0.00 | 35 | 1016.0 |